Marshfield, WI

4:05 AM CDT on August 25, 2016 (GMT -0500)
Marshfield Municipal

Weather History for KMFI - April, 2013

Change the Weather History Date:

Friday, April 12, 2013

  Actual Average Record
Temperature  
Mean Temperature 30 °F -  
Max Temperature 34 °F 54 °F 80 °F (1977)
Min Temperature 28 °F 31 °F 13 °F (1939)
Degree Days  
Heating Degree Days 34    
Moisture  
Dew Point 27 °F    
Average Humidity 90    
Maximum Humidity 93    
Minimum Humidity 75    
Precipitation  
Precipitation 0.00 in - - ()
Sea Level Pressure  
Sea Level Pressure 29.65 in    
Wind  
Wind Speed 10 mph (NE)    
Max Wind Speed 13 mph    
Max Gust Speed 21 mph    
Visibility 4 miles    
Events Snow    
Averages and records for this station are not official NWS values.
T = Trace of Precipitation, MM = Missing Value Source: NWS Daily Summary

Daily Weather History Graph

Daily Weather History Graph

Search for Another Location

Airport or City:

Trip Planner

Search our weather history database for the weather conditions in past years. The results will help you decide how hot, cold, wet, or windy it might be!

Date:

Astronomy

Apr. 12, 2013 Rise Set
Actual Time 6:21 AM CDT 7:42 PM CDT
Civil Twilight 5:51 AM CDT 8:12 PM CDT
Nautical Twilight 5:14 AM CDT 8:49 PM CDT
Astronomical Twilight 4:36 AM CDT 9:28 PM CDT
Moon 7:26 AM CDT (4/12) 10:19 PM CDT (4/12)
Length of Visible Light 14h 21m
Length of Day
13h 20m
Waxing Crescent, 5% of the Moon is Illuminated
Apr 12
Waxing Crescent
Apr 18
First Quarter
Apr 25
Full
May 2
Last Quarter
May 9
New

Hourly Weather History & Observations

Time (CDT) Temp. Windchill Dew Point Humidity Pressure Visibility Wind Dir Wind Speed Gust Speed Precip Events Conditions
12:01 AM 28.4 °F 18.5 °F 26.6 °F 93% 29.64 in 2.5 mi East 11.5 mph - 0.00 in Snow Light Snow
12:18 AM 28.4 °F 18.5 °F 26.6 °F 93% 29.63 in 1.5 mi East 11.5 mph 20.7 mph 0.00 in Snow Light Snow
12:33 AM 28.4 °F 18.0 °F 26.6 °F 93% 29.63 in 1.0 mi East 12.7 mph - 0.00 in Snow Light Snow
12:42 AM 28.4 °F 18.0 °F 26.6 °F 93% 29.63 in 1.2 mi East 12.7 mph - 0.00 in Snow Light Snow
12:51 AM 28.4 °F 18.5 °F 26.6 °F 93% 29.63 in 1.0 mi East 11.5 mph - 0.00 in Snow Light Snow
12:54 AM 28.0 °F 17.5 °F 26.1 °F 92% 29.67 in 1.0 mi East 12.7 mph - 0.00 in Snow Light Snow
1:03 AM 28.4 °F 18.5 °F 26.6 °F 93% 29.62 in 1.2 mi ENE 11.5 mph - 0.00 in Snow Light Snow
1:22 AM 28.4 °F 18.5 °F 26.6 °F 93% 29.62 in 1.5 mi ENE 11.5 mph - 0.00 in Snow Light Snow
1:43 AM 28.4 °F 18.0 °F 26.6 °F 93% 29.61 in 2.0 mi ENE 12.7 mph - 0.00 in Snow Light Snow
1:54 AM 28.0 °F 18.6 °F 26.1 °F 92% 29.65 in 2.0 mi ENE 10.4 mph - 0.00 in Snow Light Snow
2:03 AM 28.4 °F 19.1 °F 26.6 °F 93% 29.60 in 1.5 mi ENE 10.4 mph - 0.00 in Snow Light Snow
2:42 AM 28.4 °F 19.7 °F 26.6 °F 93% 29.59 in 2.0 mi ENE 9.2 mph - 0.00 in Snow Light Snow
2:52 AM 28.4 °F 19.7 °F 26.6 °F 93% 29.59 in 1.8 mi ENE 9.2 mph - 0.00 in Snow Light Snow
2:54 AM 28.0 °F 18.6 °F 26.1 °F 92% 29.63 in 1.8 mi ENE 10.4 mph - 0.00 in Snow Light Snow
3:08 AM 28.4 °F 18.5 °F 26.6 °F 93% 29.58 in 2.5 mi ENE 11.5 mph - 0.00 in Snow Light Snow
3:23 AM 28.4 °F 19.1 °F 26.6 °F 93% 29.58 in 3.0 mi ENE 10.4 mph - 0.00 in Snow Light Snow
3:54 AM 28.0 °F 18.6 °F 26.1 °F 92% 29.62 in 2.5 mi ENE 10.4 mph - 0.00 in Snow Light Snow
4:09 AM 28.4 °F 19.1 °F 26.6 °F 93% 29.58 in 1.5 mi ENE 10.4 mph - 0.00 in Snow Light Snow
4:54 AM 28.0 °F 20.0 °F 26.1 °F 92% 29.62 in 1.5 mi NE 8.1 mph - 0.00 in Snow Light Snow
5:15 AM 28.4 °F 20.4 °F 26.6 °F 93% 29.57 in 1.2 mi NE 8.1 mph - 0.00 in Snow Light Snow
5:33 AM 28.4 °F 20.4 °F 26.6 °F 93% 29.57 in 1.2 mi NE 8.1 mph - 0.00 in Snow Light Snow
5:54 AM 28.0 °F 20.0 °F 26.1 °F 92% 29.62 in 1.5 mi NE 8.1 mph - 0.00 in Snow Light Snow
6:54 AM 28.0 °F 19.3 °F 26.1 °F 92% 29.62 in 1.0 mi NE 9.2 mph - 0.00 in Snow Light Snow
7:13 AM 28.4 °F 19.7 °F 26.6 °F 93% 29.58 in 0.8 mi NE 9.2 mph - 0.00 in Snow Light Snow
7:24 AM 28.4 °F 19.7 °F 26.6 °F 93% 29.57 in 1.0 mi NE 9.2 mph - 0.00 in Snow Light Snow
7:36 AM 28.4 °F 19.1 °F 26.6 °F 93% 29.57 in 1.2 mi NE 10.4 mph - 0.00 in Snow Light Snow
7:54 AM 28.9 °F 19.2 °F 26.1 °F 89% 29.63 in 1.0 mi NE 11.5 mph - 0.00 in Snow Light Snow
8:11 AM 28.4 °F 18.5 °F 26.6 °F 93% 29.58 in 1.2 mi NE 11.5 mph - 0.00 in Snow Light Snow
8:27 AM 28.4 °F 18.5 °F 26.6 °F 93% 29.58 in 2.5 mi ENE 11.5 mph - 0.00 in Snow Light Snow
8:54 AM 28.9 °F 19.2 °F 26.1 °F 89% 29.64 in 2.0 mi NE 11.5 mph - 0.00 in Snow Light Snow
8:57 AM 28.4 °F 18.5 °F 26.6 °F 93% 29.59 in 1.8 mi ENE 11.5 mph - 0.00 in Snow Light Snow
9:22 AM 28.4 °F 19.1 °F 26.6 °F 93% 29.59 in 1.2 mi ENE 10.4 mph - 0.00 in Snow Light Snow
9:49 AM 28.4 °F 19.7 °F 26.6 °F 93% 29.59 in 2.0 mi ENE 9.2 mph - 0.00 in Snow Light Snow
9:54 AM 28.9 °F 19.8 °F 26.1 °F 89% 29.64 in 2.0 mi ENE 10.4 mph - 0.00 in Snow Light Snow
10:06 AM 28.4 °F 18.5 °F 26.6 °F 93% 29.60 in 2.0 mi ENE 11.5 mph - 0.00 in Snow Light Snow
10:16 AM 30.2 °F 21.9 °F 26.6 °F 86% 29.60 in 1.2 mi ENE 9.2 mph - 0.00 in Snow Light Snow
10:21 AM 30.2 °F 21.3 °F 26.6 °F 86% 29.60 in 1.0 mi ENE 10.4 mph - 0.00 in Snow Light Snow
10:54 AM 30.0 °F 21.7 °F 28.0 °F 92% 29.66 in 1.0 mi ENE 9.2 mph - 0.00 in Snow Light Snow
11:03 AM 30.2 °F 22.6 °F 28.4 °F 93% 29.61 in 1.5 mi NE 8.1 mph - 0.00 in Snow Light Snow
11:10 AM 30.2 °F 23.4 °F 28.4 °F 93% 29.62 in 1.8 mi ENE 6.9 mph - 0.00 in Snow Light Snow
11:16 AM 30.2 °F 23.4 °F 28.4 °F 93% 29.62 in 2.0 mi ENE 6.9 mph - 0.00 in Snow Light Snow
11:26 AM 30.2 °F 23.4 °F 28.4 °F 93% 29.62 in 3.0 mi ENE 6.9 mph - 0.00 in Snow Light Snow
11:29 AM 30.2 °F 22.6 °F 28.4 °F 93% 29.62 in 2.5 mi ENE 8.1 mph - 0.00 in Snow Light Snow
11:39 AM 30.2 °F 23.4 °F 28.4 °F 93% 29.62 in 2.5 mi ENE 6.9 mph - 0.00 in Snow Light Snow
11:44 AM 30.2 °F 23.4 °F 28.4 °F 93% 29.62 in 3.0 mi ENE 6.9 mph - 0.00 in Snow Light Snow
11:54 AM 32.0 °F 26.4 °F 27.0 °F 82% 29.67 in 4.0 mi ENE 5.8 mph - 0.00 in Snow Light Snow
12:54 PM 33.1 °F 27.7 °F 26.1 °F 75% 29.67 in 10.0 mi NNE 5.8 mph - 0.00 in   Overcast
1:06 PM 33.8 °F 30.8 °F 26.6 °F 75% 29.62 in 10.0 mi NE 3.5 mph - N/A   Overcast
1:54 PM 33.1 °F - 27.0 °F 78% 29.68 in 10.0 mi Calm Calm - N/A   Overcast
2:54 PM 33.1 °F 27.7 °F 27.0 °F 78% 29.70 in 10.0 mi NNW 5.8 mph - 0.00 in   Overcast
3:54 PM 33.1 °F 28.7 °F 27.0 °F 78% 29.71 in 10.0 mi NNW 4.6 mph - N/A   Overcast
4:54 PM 33.1 °F 28.7 °F 27.0 °F 78% 29.72 in 10.0 mi West 4.6 mph - N/A   Overcast
5:54 PM 33.1 °F 28.7 °F 27.0 °F 78% 29.74 in 10.0 mi West 4.6 mph - 0.00 in   Overcast
6:16 PM 32.0 °F 25.6 °F 28.4 °F 87% 29.70 in 9.0 mi WSW 6.9 mph - N/A   Overcast
6:54 PM 32.0 °F 27.5 °F 28.0 °F 85% 29.75 in 1.8 mi WSW 4.6 mph - 0.00 in Snow Light Snow
7:02 PM 32.0 °F 27.5 °F 28.4 °F 87% 29.70 in 2.5 mi WSW 4.6 mph - 0.00 in Snow Light Snow
7:09 PM 32.0 °F 25.6 °F 28.4 °F 87% 29.70 in 4.0 mi WSW 6.9 mph - 0.00 in Snow Light Snow
7:54 PM 32.0 °F 27.5 °F 28.0 °F 85% 29.75 in 10.0 mi West 4.6 mph - 0.00 in   Overcast
8:32 PM 32.0 °F 27.5 °F 28.4 °F 87% 29.71 in 9.0 mi West 4.6 mph - N/A   Overcast
8:54 PM 30.9 °F 24.3 °F 28.9 °F 92% 29.76 in 8.0 mi West 6.9 mph - N/A   Overcast
9:30 PM 30.2 °F 23.4 °F 28.4 °F 93% 29.72 in 10.0 mi West 6.9 mph - 0.00 in   Overcast
9:54 PM 30.9 °F 24.3 °F 28.0 °F 89% 29.77 in 6.0 mi West 6.9 mph - 0.00 in Snow Light Snow
10:05 PM 30.2 °F 23.4 °F 28.4 °F 93% 29.72 in 7.0 mi West 6.9 mph - 0.00 in Snow Light Snow
10:35 PM 30.2 °F 24.3 °F 28.4 °F 93% 29.72 in 6.0 mi West 5.8 mph - 0.00 in Snow Light Snow
10:42 PM 30.2 °F 24.3 °F 28.4 °F 93% 29.72 in 6.0 mi West 5.8 mph - 0.00 in Snow Light Snow
10:54 PM 30.9 °F 23.5 °F 28.0 °F 89% 29.78 in 7.0 mi WNW 8.1 mph - 0.00 in Snow Light Snow
11:12 PM 30.2 °F 23.4 °F 28.4 °F 93% 29.73 in 9.0 mi West 6.9 mph - 0.00 in Snow Light Snow
11:54 PM 30.9 °F 24.3 °F 28.0 °F 89% 29.77 in 5.0 mi WNW 6.9 mph - 0.00 in Snow Light Snow